Pittsburgh, PA

9:46 AM EST on December 11, 2019 (GMT -0500)
Pittsburgh International

Weather History for KPIT - October, 2019

Change the Weather History Date:

Saturday, October 5, 2019

  Actual Average Record
Temperature  
Mean Temperature 56 °F 56 °F  
Max Temperature 68 °F 66 °F 91 °F (1879)
Min Temperature 43 °F 46 °F 31 °F (1965)
Degree Days  
Heating Degree Days 10 9  
Month to date heating degree days 19 43  
Since 1 July heating degree days 27 157  
Cooling Degree Days 0 1  
Month to date cooling degree days 37 5  
Year to date cooling degree days 934 733  
Growing Degree Days 6 (Base 50)    
Moisture  
Dew Point 42 °F    
Average Humidity 64    
Maximum Humidity 80    
Minimum Humidity 45    
Precipitation  
Precipitation 0.00 in 0.08 in 1.00 in (2000)
Month to date precipitation 0.48 0.37  
Year to date precipitation 40.57 30.19  
Snow  
Snow 0.00 in 0.00 in 0.00 in (2001)
Month to date snowfall 0.0 0.0  
Snow Depth 0.00 in    
Sea Level Pressure  
Sea Level Pressure 30.23 in    
Wind  
Wind Speed 9 mph ()    
Max Wind Speed 18 mph    
Max Gust Speed 22 mph    
Visibility 10.0 miles    
Events      
T = Trace of Precipitation, MM = Missing Value Source: Averaged Metar Reports

Daily Weather History Graph

Daily Weather History Graph

Search for Another Location

Airport or City:

Astronomy

Oct. 05, 2019 Rise Set
Actual Time 7:21 AM EDT 6:56 PM EDT
Civil Twilight 6:53 AM EDT 7:24 PM EDT
Nautical Twilight 6:22 AM EDT 7:55 PM EDT
Astronomical Twilight 5:50 AM EDT 8:27 PM EDT
Moon 2:46 PM EDT (10/5) No Moon Set
Length of Visible Light 12h 30m
Length of Day
11h 35m
Waxing Crescent, 50% of the Moon is Illuminated
Oct 5
Waxing Crescent
Oct 5
First Quarter
Oct 13
Full
Oct 21
Last Quarter
Oct 27
New

Hourly Weather History & Observations

Time (EDT) Temp. Windchill Dew Point Humidity Pressure Visibility Wind Dir Wind Speed Gust Speed Precip Events Conditions
12:51 AM 46.9 °F - 39.9 °F 77% 30.35 in 10.0 mi ENE 6.9 mph - N/A   Partly Cloudy
1:51 AM 46.0 °F 41.9 °F 39.0 °F 76% 30.34 in 10.0 mi ENE 8.1 mph - N/A   Scattered Clouds
2:51 AM 45.0 °F 40.6 °F 39.0 °F 80% 30.34 in 10.0 mi ENE 8.1 mph - N/A   Mostly Cloudy
3:51 AM 44.1 °F 38.1 °F 37.9 °F 79% 30.32 in 10.0 mi East 11.5 mph - N/A   Partly Cloudy
4:51 AM 44.1 °F 39.0 °F 37.9 °F 79% 30.32 in 10.0 mi East 9.2 mph - N/A   Mostly Cloudy
5:51 AM 45.0 °F 40.1 °F 37.9 °F 76% 30.32 in 10.0 mi East 9.2 mph - N/A   Overcast
6:51 AM 44.1 °F 39.5 °F 37.0 °F 76% 30.32 in 10.0 mi East 8.1 mph - N/A   Mostly Cloudy
7:51 AM 44.1 °F 39.0 °F 37.0 °F 76% 30.31 in 10.0 mi East 9.2 mph - N/A   Partly Cloudy
8:51 AM 46.0 °F 40.2 °F 37.0 °F 71% 30.31 in 10.0 mi ESE 12.7 mph - N/A   Partly Cloudy
9:51 AM 48.9 °F - 37.9 °F 66% 30.31 in 10.0 mi ESE 9.2 mph - N/A   Partly Cloudy
10:51 AM 52.0 °F - 39.0 °F 61% 30.30 in 10.0 mi East 10.4 mph - N/A   Partly Cloudy
11:51 AM 55.9 °F - 41.0 °F 57% 30.28 in 10.0 mi East 12.7 mph 16.1 mph N/A   Partly Cloudy
12:51 PM 59.0 °F - 42.1 °F 53% 30.25 in 10.0 mi East 11.5 mph - N/A   Scattered Clouds
1:51 PM 61.0 °F - 43.0 °F 52% 30.22 in 10.0 mi East 12.7 mph 19.6 mph N/A   Scattered Clouds
2:51 PM 64.0 °F - 45.0 °F 50% 30.19 in 10.0 mi ESE 10.4 mph - N/A   Scattered Clouds
3:51 PM 66.9 °F - 45.0 °F 45% 30.16 in 10.0 mi ESE 12.7 mph - N/A   Scattered Clouds
4:51 PM 68.0 °F - 46.0 °F 45% 30.14 in 10.0 mi ESE 13.8 mph - N/A   Scattered Clouds
5:51 PM 66.0 °F - 45.0 °F 47% 30.13 in 10.0 mi SE 13.8 mph - N/A   Scattered Clouds
6:51 PM 63.0 °F - 45.0 °F 52% 30.13 in 10.0 mi SE 11.5 mph - N/A   Scattered Clouds
7:51 PM 60.1 °F - 45.0 °F 57% 30.12 in 10.0 mi SE 11.5 mph - N/A   Scattered Clouds
8:51 PM 59.0 °F - 44.1 °F 58% 30.12 in 10.0 mi SE 13.8 mph - N/A   Partly Cloudy
9:51 PM 57.9 °F - 45.0 °F 62% 30.11 in 10.0 mi SE 11.5 mph - N/A   Partly Cloudy
10:51 PM 57.0 °F - 45.0 °F 64% 30.11 in 10.0 mi SE 10.4 mph - N/A   Partly Cloudy
11:51 PM 57.0 °F - 46.0 °F 67% 30.10 in 10.0 mi SE 9.2 mph - N/A   Scattered Clouds